Time,TemperatureF,DewpointF,PressureIn,WindDirection,WindDirectionDegrees,WindSpeedMPH,WindSpeedGustMPH,Humidity,HourlyPrecipIn,Conditions,Clouds,dailyrainin,SolarRadiationWatts/m^2,SoftwareType,DateUTC
2013-07-24 00:01:00,69.0,64.0,29.95,ESE,117,4.0,15.0,83,0.00,,,0.25,0.000000,,2013-07-24 04:01:00,
2013-07-24 00:10:00,69.0,65.0,29.94,WNW,298,5.0,15.0,86,0.00,,,0.06,0.000000,,2013-07-24 04:10:00,
2013-07-24 00:43:00,69.0,65.0,29.94,WNW,298,5.0,15.0,86,0.00,,,0.06,0.000000,,2013-07-24 04:43:00,
2013-07-24 00:53:00,69.0,65.0,29.94,WNW,298,5.0,15.0,86,0.00,,,0.06,0.000000,,2013-07-24 04:53:00,
2013-07-24 01:02:00,69.0,65.0,29.94,WNW,298,5.0,15.0,86,0.00,,,0.06,0.000000,,2013-07-24 05:02:00,
2013-07-24 01:10:00,69.0,63.0,29.94,NW,326,5.0,13.0,82,0.00,,,0.01,0.000000,,2013-07-24 05:10:00,
2013-07-24 01:43:00,69.0,63.0,29.94,NW,326,5.0,13.0,82,0.00,,,0.01,0.000000,,2013-07-24 05:43:00,
2013-07-24 01:52:00,69.0,63.0,29.94,NW,326,5.0,13.0,82,0.00,,,0.01,0.000000,,2013-07-24 05:52:00,
2013-07-24 02:01:00,69.0,63.0,29.94,NW,326,5.0,13.0,82,0.00,,,0.01,0.000000,,2013-07-24 06:01:00,
2013-07-24 02:10:00,69.0,63.0,29.92,WNW,299,3.0,12.0,81,0.00,,,0.01,0.000000,,2013-07-24 06:10:00,
2013-07-24 02:43:00,69.0,63.0,29.92,WNW,299,3.0,12.0,81,0.00,,,0.01,0.000000,,2013-07-24 06:43:00,
2013-07-24 02:53:00,69.0,63.0,29.92,WNW,299,3.0,12.0,81,0.00,,,0.01,0.000000,,2013-07-24 06:53:00,
2013-07-24 03:02:00,69.0,63.0,29.92,WNW,299,3.0,12.0,81,0.00,,,0.01,0.000000,,2013-07-24 07:02:00,
2013-07-24 03:10:00,69.0,64.0,29.90,WSW,244,3.0,10.0,83,0.00,,,0.00,0.000000,,2013-07-24 07:10:00,
2013-07-24 03:43:00,69.0,64.0,29.90,WSW,244,3.0,10.0,83,0.00,,,0.00,0.000000,,2013-07-24 07:43:00,
2013-07-24 03:53:00,69.0,64.0,29.90,WSW,244,3.0,10.0,83,0.00,,,0.00,0.000000,,2013-07-24 07:53:00,
2013-07-24 04:02:00,69.0,64.0,29.90,WSW,244,3.0,10.0,83,0.00,,,0.00,0.000000,,2013-07-24 08:02:00,
2013-07-24 04:10:00,69.0,64.0,29.88,North,353,7.0,14.0,84,0.00,,,0.00,0.000000,,2013-07-24 08:10:00,
2013-07-24 04:32:00,69.0,64.0,29.88,North,353,7.0,14.0,84,0.00,,,0.00,0.000000,,2013-07-24 08:32:00,
2013-07-24 04:43:00,69.0,64.0,29.88,North,353,7.0,14.0,84,0.00,,,0.00,0.000000,,2013-07-24 08:43:00,
2013-07-24 04:52:00,69.0,64.0,29.88,North,353,7.0,14.0,84,0.00,,,0.00,0.000000,,2013-07-24 08:52:00,
2013-07-24 05:02:00,69.0,64.0,29.88,North,353,7.0,14.0,84,0.00,,,0.00,0.000000,,2013-07-24 09:02:00,
2013-07-24 05:10:00,68.0,62.0,29.89,WNW,287,2.0,12.0,82,0.00,,,0.00,0.000000,,2013-07-24 09:10:00,
2013-07-24 05:43:00,68.0,62.0,29.89,WNW,287,2.0,12.0,82,0.00,,,0.00,0.000000,,2013-07-24 09:43:00,
2013-07-24 05:53:00,68.0,62.0,29.89,WNW,287,2.0,12.0,82,0.00,,,0.00,0.000000,,2013-07-24 09:53:00,
2013-07-24 06:02:00,68.0,62.0,29.89,WNW,287,2.0,12.0,82,0.00,,,0.00,0.000000,,2013-07-24 10:02:00,
2013-07-24 06:10:00,69.0,64.0,29.90,North,355,4.0,6.0,84,0.00,,,0.00,0.000000,,2013-07-24 10:10:00,
2013-07-24 06:43:00,69.0,64.0,29.90,North,355,4.0,6.0,84,0.00,,,0.00,0.000000,,2013-07-24 10:43:00,
2013-07-24 06:53:00,69.0,64.0,29.90,North,355,4.0,6.0,84,0.00,,,0.00,0.000000,,2013-07-24 10:53:00,
2013-07-24 07:02:00,69.0,64.0,29.90,North,355,4.0,6.0,84,0.00,,,0.00,0.000000,,2013-07-24 11:02:00,
2013-07-24 07:10:00,70.0,64.0,29.91,North,352,6.0,12.0,82,0.00,,,0.00,0.000000,,2013-07-24 11:10:00,
2013-07-24 07:44:00,70.0,64.0,29.91,North,352,6.0,12.0,82,0.00,,,0.00,0.000000,,2013-07-24 11:44:00,
2013-07-24 07:52:00,70.0,64.0,29.91,North,352,6.0,12.0,82,0.00,,,0.00,0.000000,,2013-07-24 11:52:00,
2013-07-24 08:02:00,70.0,64.0,29.91,North,352,6.0,12.0,82,0.00,,,0.00,0.000000,,2013-07-24 12:02:00,
2013-07-24 08:10:00,72.0,65.0,29.94,WNW,297,2.0,10.0,80,0.00,,,0.00,8.000000,,2013-07-24 12:10:00,
2013-07-24 08:42:00,72.0,65.0,29.94,WNW,297,2.0,10.0,80,0.00,,,0.00,8.000000,,2013-07-24 12:42:00,
2013-07-24 08:52:00,72.0,65.0,29.94,WNW,297,2.0,10.0,80,0.00,,,0.00,8.000000,,2013-07-24 12:52:00,
2013-07-24 09:02:00,72.0,65.0,29.94,WNW,297,2.0,10.0,80,0.00,,,0.00,8.000000,,2013-07-24 13:02:00,
2013-07-24 10:10:00,83.0,71.0,29.95,SW,223,3.0,9.0,68,0.00,,,0.00,419.000000,,2013-07-24 14:10:00,
2013-07-24 13:10:00,86.0,67.0,29.95,North,350,2.0,10.0,54,-99.99,,,0.00,989.000000,,2013-07-24 17:10:00,
2013-07-24 13:33:00,86.0,67.0,29.95,North,350,2.0,10.0,54,-99.99,,,0.00,989.000000,,2013-07-24 17:33:00,
2013-07-24 13:43:00,86.0,67.0,29.95,North,350,2.0,10.0,54,-99.99,,,0.00,989.000000,,2013-07-24 17:43:00,
2013-07-24 13:53:00,86.0,67.0,29.95,North,350,2.0,10.0,54,-99.99,,,0.00,989.000000,,2013-07-24 17:53:00,
2013-07-24 14:02:00,86.0,67.0,29.95,North,350,2.0,10.0,54,-99.99,,,0.00,989.000000,,2013-07-24 18:02:00,
2013-07-24 14:10:00,84.0,69.0,29.94,SSW,193,3.0,6.0,60,0.00,,,0.00,614.000000,,2013-07-24 18:10:00,
2013-07-24 14:33:00,84.0,69.0,29.94,SSW,193,3.0,6.0,60,0.00,,,0.00,614.000000,,2013-07-24 18:33:00,
2013-07-24 14:43:00,84.0,69.0,29.94,SSW,193,3.0,6.0,60,0.00,,,0.00,614.000000,,2013-07-24 18:43:00,
2013-07-24 14:52:00,84.0,69.0,29.94,SSW,193,3.0,6.0,60,0.00,,,0.00,614.000000,,2013-07-24 18:52:00,
2013-07-24 15:02:00,84.0,69.0,29.94,SSW,193,3.0,6.0,60,0.00,,,0.00,614.000000,,2013-07-24 19:02:00,
2013-07-24 15:10:00,83.0,69.0,29.94,South,173,3.0,6.0,62,0.00,,,0.00,664.000000,,2013-07-24 19:10:00,
2013-07-24 15:43:00,83.0,69.0,29.94,South,173,3.0,6.0,62,0.00,,,0.00,664.000000,,2013-07-24 19:43:00,
2013-07-24 15:53:00,83.0,69.0,29.94,South,173,3.0,6.0,62,0.00,,,0.00,664.000000,,2013-07-24 19:53:00,
2013-07-24 16:02:00,83.0,69.0,29.94,South,173,3.0,6.0,62,0.00,,,0.00,664.000000,,2013-07-24 20:02:00,
2013-07-24 16:10:00,84.0,67.0,29.92,ESE,117,2.0,9.0,57,0.00,,,0.00,572.000000,,2013-07-24 20:10:00,
2013-07-24 16:33:00,84.0,67.0,29.92,ESE,117,2.0,9.0,57,0.00,,,0.00,572.000000,,2013-07-24 20:33:00,
2013-07-24 16:43:00,84.0,67.0,29.92,ESE,117,2.0,9.0,57,0.00,,,0.00,572.000000,,2013-07-24 20:43:00,
2013-07-24 16:53:00,84.0,67.0,29.92,ESE,117,2.0,9.0,57,0.00,,,0.00,572.000000,,2013-07-24 20:53:00,
2013-07-24 17:03:00,84.0,67.0,29.92,ESE,117,2.0,9.0,57,0.00,,,0.00,572.000000,,2013-07-24 21:03:00,
2013-07-24 17:10:00,86.0,67.0,29.91,ESE,117,2.0,5.0,53,0.00,,,0.00,644.000000,,2013-07-24 21:10:00,
2013-07-24 17:44:00,86.0,67.0,29.91,ESE,117,2.0,5.0,53,0.00,,,0.00,644.000000,,2013-07-24 21:44:00,
2013-07-24 17:53:00,86.0,67.0,29.91,ESE,117,2.0,5.0,53,0.00,,,0.00,644.000000,,2013-07-24 21:53:00,
2013-07-24 18:02:00,86.0,67.0,29.91,ESE,117,2.0,5.0,53,0.00,,,0.00,644.000000,,2013-07-24 22:02:00,
2013-07-24 18:10:00,73.0,61.0,29.92,SSW,211,9.0,16.0,66,0.00,,,-99.99,603.000000,,2013-07-24 22:10:00,
2013-07-24 18:43:00,73.0,61.0,29.92,SSW,211,9.0,16.0,66,0.00,,,-99.99,603.000000,,2013-07-24 22:43:00,
2013-07-24 18:53:00,73.0,61.0,29.92,SSW,211,9.0,16.0,66,0.00,,,-99.99,603.000000,,2013-07-24 22:53:00,
2013-07-24 19:02:00,73.0,61.0,29.92,SSW,211,9.0,16.0,66,0.00,,,-99.99,603.000000,,2013-07-24 23:02:00,
2013-07-24 19:10:00,79.0,60.0,29.91,WSW,253,3.0,11.0,52,0.00,,,0.00,316.000000,,2013-07-24 23:10:00,
2013-07-24 19:43:00,79.0,60.0,29.91,WSW,253,3.0,11.0,52,0.00,,,0.00,316.000000,,2013-07-24 23:43:00,
2013-07-24 19:52:00,79.0,60.0,29.91,WSW,253,3.0,11.0,52,0.00,,,0.00,316.000000,,2013-07-24 23:52:00,
2013-07-24 20:02:00,79.0,60.0,29.91,WSW,253,3.0,11.0,52,0.00,,,0.00,316.000000,,2013-07-25 00:02:00,
2013-07-24 20:10:00,74.0,64.0,29.94,NNW,337,1.0,16.0,70,0.00,,,0.00,303.000000,,2013-07-25 00:10:00,
2013-07-24 20:43:00,74.0,64.0,29.94,NNW,337,1.0,16.0,70,0.00,,,0.00,303.000000,,2013-07-25 00:43:00,
2013-07-24 20:53:00,74.0,64.0,29.94,NNW,337,1.0,16.0,70,0.00,,,0.00,303.000000,,2013-07-25 00:53:00,
2013-07-24 21:03:00,74.0,64.0,29.94,NNW,337,1.0,16.0,70,0.00,,,0.00,303.000000,,2013-07-25 01:03:00,
2013-07-24 21:10:00,69.0,62.0,29.95,NNE,15,6.0,11.0,79,0.00,,,0.00,105.000000,,2013-07-25 01:10:00,
2013-07-24 21:43:00,69.0,62.0,29.95,NNE,15,6.0,11.0,79,0.00,,,0.00,105.000000,,2013-07-25 01:43:00,
2013-07-24 21:53:00,69.0,62.0,29.95,NNE,15,6.0,11.0,79,0.00,,,0.00,105.000000,,2013-07-25 01:53:00,
2013-07-24 22:02:00,69.0,62.0,29.95,NNE,15,6.0,11.0,79,0.00,,,0.00,105.000000,,2013-07-25 02:02:00,
2013-07-24 22:10:00,68.0,62.0,29.97,NNE,18,6.0,10.0,82,0.00,,,0.00,8.000000,,2013-07-25 02:10:00,
2013-07-24 22:43:00,68.0,62.0,29.97,NNE,18,6.0,10.0,82,0.00,,,0.00,8.000000,,2013-07-25 02:43:00,
2013-07-24 22:53:00,68.0,62.0,29.97,NNE,18,6.0,10.0,82,0.00,,,0.00,8.000000,,2013-07-25 02:53:00,
2013-07-24 23:02:00,68.0,62.0,29.97,NNE,18,6.0,10.0,82,0.00,,,0.00,8.000000,,2013-07-25 03:02:00,
2013-07-24 23:10:00,70.0,64.0,29.98,NNE,14,8.0,13.0,81,0.00,,,0.00,0.000000,,2013-07-25 03:10:00,
2013-07-24 23:45:00,70.0,64.0,29.98,NNE,14,8.0,13.0,81,0.00,,,0.00,0.000000,,2013-07-25 03:45:00,
2013-07-24 23:52:00,70.0,64.0,29.98,NNE,14,8.0,13.0,81,0.00,,,0.00,0.000000,,2013-07-25 03:52:00,